Seattle Boeing, WA

7:14 AM PDT on July 28, 2017 (GMT -0700)
Boeing Field-King County International

Weather History for KBFI - January, 2014

Change the Weather History Date:

Thursday, January 2, 2014

  Actual Average Record
Temperature  
Mean Temperature 48 °F -  
Max Temperature 53 °F 42 °F 57 °F (2003)
Min Temperature 44 °F 33 °F 6 °F (1950)
Degree Days  
Heating Degree Days 16    
Moisture  
Dew Point 42 °F    
Average Humidity 80    
Maximum Humidity 89    
Minimum Humidity 59    
Precipitation  
Precipitation 0.53 in - - ()
Sea Level Pressure  
Sea Level Pressure 30.07 in    
Wind  
Wind Speed 5 mph (SE)    
Max Wind Speed 13 mph    
Max Gust Speed 21 mph    
Visibility 8 miles    
Events Rain    
Averages and records for this station are not official NWS values.
T = Trace of Precipitation, MM = Missing Value Source: NWS Daily Summary

Daily Weather History Graph

Daily Weather History Graph

Search for Another Location

Airport or City:

Trip Planner

Search our weather history database for the weather conditions in past years. The results will help you decide how hot, cold, wet, or windy it might be!

Date:

Astronomy

Jan. 02, 2014 Rise Set
Actual Time 7:57 AM PST 4:29 PM PST
Civil Twilight 7:21 AM PST 5:05 PM PST
Nautical Twilight 6:42 AM PST 5:44 PM PST
Astronomical Twilight 6:05 AM PST 6:21 PM PST
Moon 8:34 AM PST (1/2) 6:43 PM PST (1/2)
Length of Visible Light 9h 44m
Length of Day
8h 32m
Waxing Crescent, 3% of the Moon is Illuminated
Jan 2
Waxing Crescent
Jan 7
First Quarter
Jan 15
Full
Jan 23
Last Quarter
Jan 30
New

Hourly Weather History & Observations

Time (PST) Temp. Windchill Dew Point Humidity Pressure Visibility Wind Dir Wind Speed Gust Speed Precip Events Conditions
12:53 AM 45.0 °F 43.5 °F 41.0 °F 86% 30.25 in 10.0 mi SE 3.5 mph - N/A   Overcast
1:53 AM 44.1 °F 42.5 °F 41.0 °F 89% 30.24 in 8.0 mi SE 3.5 mph - 0.00 in Rain Light Rain
2:53 AM 44.1 °F 40.8 °F 41.0 °F 89% 30.23 in 6.0 mi East 5.8 mph - 0.01 in Rain Light Rain
3:21 AM 44.6 °F 43.1 °F 41.0 °F 87% 30.24 in 8.0 mi SSE 3.5 mph - 0.01 in Rain Light Rain
3:53 AM 44.1 °F - 41.0 °F 89% 30.24 in 7.0 mi Calm Calm - 0.01 in   Overcast
4:53 AM 44.1 °F - 41.0 °F 89% 30.21 in 8.0 mi Calm Calm - N/A   Overcast
5:53 AM 45.0 °F 42.6 °F 41.0 °F 86% 30.20 in 5.0 mi ESE 4.6 mph - N/A   Overcast
6:53 AM 44.1 °F 41.5 °F 39.9 °F 85% 30.17 in 8.0 mi SE 4.6 mph - N/A   Overcast
7:53 AM 44.1 °F - 41.0 °F 89% 30.14 in 9.0 mi Calm Calm - N/A   Overcast
8:53 AM 45.0 °F 42.6 °F 41.0 °F 86% 30.14 in 10.0 mi SSE 4.6 mph - N/A   Overcast
9:53 AM 46.0 °F 41.9 °F 42.1 °F 86% 30.13 in 8.0 mi SSE 8.1 mph - N/A   Overcast
10:53 AM 46.9 °F - 41.0 °F 80% 30.11 in 10.0 mi SE 8.1 mph - N/A   Overcast
11:53 AM 46.9 °F - 41.0 °F 80% 30.08 in 10.0 mi SE 10.4 mph - N/A   Mostly Cloudy
12:53 PM 48.9 °F - 42.1 °F 77% 30.04 in 10.0 mi SE 9.2 mph - N/A   Mostly Cloudy
1:53 PM 53.1 °F - 39.0 °F 59% 30.01 in 10.0 mi South 9.2 mph - N/A   Mostly Cloudy
2:53 PM 53.1 °F - 39.0 °F 59% 29.99 in 10.0 mi SSW 12.7 mph 20.7 mph N/A   Overcast
3:53 PM 52.0 °F - 39.9 °F 63% 29.99 in 10.0 mi SW 5.8 mph - N/A   Overcast
4:53 PM 52.0 °F - 39.9 °F 63% 29.96 in 10.0 mi South 8.1 mph - N/A   Overcast
5:53 PM 51.1 °F - 42.1 °F 71% 29.94 in 10.0 mi South 12.7 mph - 0.01 in   Overcast
6:53 PM 51.1 °F - 42.1 °F 71% 29.91 in 10.0 mi South 10.4 mph - 0.01 in Rain Light Rain
7:51 PM 50.0 °F - 42.8 °F 76% 29.92 in 10.0 mi SSW 9.2 mph 19.6 mph 0.00 in Rain Light Rain
7:53 PM 50.0 °F - 42.1 °F 74% 29.92 in 10.0 mi SSW 10.4 mph 17.3 mph 0.00 in Rain Light Rain
8:53 PM 48.0 °F - 44.1 °F 86% 29.93 in 4.0 mi Variable 3.5 mph - 0.15 in Rain Rain
9:53 PM 48.9 °F - 45.0 °F 86% 29.94 in 5.0 mi SSE 4.6 mph - 0.20 in Rain Rain
10:53 PM 48.9 °F - 44.1 °F 83% 29.96 in 10.0 mi NE 4.6 mph - 0.05 in   Overcast
11:23 PM 48.2 °F - 44.6 °F 87% 29.97 in 2.5 mi NE 4.6 mph - 0.02 in Rain Light Rain
11:49 PM 48.2 °F - 44.6 °F 87% 29.99 in 3.0 mi ENE 6.9 mph - 0.09 in Rain Light Rain
11:53 PM 48.0 °F - 44.1 °F 86% 29.99 in 6.0 mi ENE 6.9 mph - 0.09 in Rain Light Rain